DLH2GY LROP-EKCH

Flight info

Callsign DLH2GY
Flight time 2h 13m
Altitude 38000
Route BUKEL DCT EDETA DCT REBLA DCT KARIL DCT KEKED DCT KELEL DCT LAJQU DCT BABEN DCT KOLOB DCT ROE M743 TIDVU
Aircraft A320/M-SDE3FGHIRWY/LB1

Departure

Time 2026-05-04 15:11
Airport Bucharest Henri Coandă International Airport (LROP)

Arrival

Time 2026-05-04 17:24
Airport Copenhagen Kastrup Airport (EKCH)
Time Latitude Longitude Altitude Speed Heading
2026-05-04 14:34 44.57030 26.08197 323 ft 0 kts 354°
2026-05-04 14:59 44.57019 26.08199 322 ft 4 kts 354°
2026-05-04 15:00 44.56992 26.08203 320 ft 4 kts 354°
2026-05-04 15:00 44.56970 26.08206 322 ft 3 kts 354°
2026-05-04 15:00 44.56947 26.08201 322 ft 4 kts 54°
2026-05-04 15:01 44.56938 26.08153 321 ft 0 kts 84°
2026-05-04 15:04 44.56939 26.08169 321 ft 5 kts 84°
2026-05-04 15:04 44.56946 26.08260 322 ft 10 kts 84°
2026-05-04 15:04 44.56951 26.08336 322 ft 7 kts 84°
2026-05-04 15:05 44.56971 26.08385 322 ft 5 kts 34°
2026-05-04 15:05 44.57001 26.08390 322 ft 4 kts 356°
2026-05-04 15:05 44.57027 26.08386 322 ft 5 kts 353°
2026-05-04 15:05 44.57056 26.08382 322 ft 4 kts 354°
2026-05-04 15:06 44.57082 26.08378 321 ft 6 kts 354°
2026-05-04 15:06 44.57145 26.08369 321 ft 9 kts 354°
2026-05-04 15:06 44.57204 26.08362 322 ft 8 kts
2026-05-04 15:07 44.57231 26.08459 322 ft 5 kts 82°
2026-05-04 15:07 44.57243 26.08496 322 ft 5 kts 45°
2026-05-04 15:07 44.57295 26.08497 323 ft 8 kts 353°
2026-05-04 15:07 44.57343 26.08489 323 ft 6 kts 353°
2026-05-04 15:08 44.57382 26.08483 323 ft 5 kts 354°
2026-05-04 15:08 44.57413 26.08479 323 ft 4 kts 354°
2026-05-04 15:08 44.57436 26.08476 322 ft 3 kts 354°
2026-05-04 15:08 44.57452 26.08473 323 ft 2 kts 354°
2026-05-04 15:09 44.57460 26.08472 323 ft 1 kts 354°
2026-05-04 15:09 44.57461 26.08472 323 ft 0 kts 354°
2026-05-04 15:09 44.57483 26.08469 323 ft 6 kts 354°
2026-05-04 15:10 44.57548 26.08460 323 ft 5 kts 354°
2026-05-04 15:10 44.57612 26.08452 323 ft 10 kts 354°
2026-05-04 15:10 44.57666 26.08489 323 ft 4 kts 84°
2026-05-04 15:11 44.57685 26.08732 321 ft 60 kts 84°
2026-05-04 15:11 44.57753 26.09641 322 ft 124 kts 84°
2026-05-04 15:11 44.57863 26.11095 331 ft 172 kts 83°
2026-05-04 15:11 44.58004 26.12746 982 ft 168 kts 83°
2026-05-04 15:12 44.58118 26.14387 1660 ft 172 kts 84°
2026-05-04 15:12 44.58299 26.16097 2083 ft 188 kts 67°
2026-05-04 15:12 44.59123 26.17580 2504 ft 203 kts 32°
2026-05-04 15:12 44.60496 26.18217 2900 ft 217 kts 359°
2026-05-04 15:13 44.61997 26.17545 3213 ft 245 kts 324°
2026-05-04 15:13 44.63388 26.16074 3830 ft 259 kts 325°
2026-05-04 15:13 44.64909 26.14551 4424 ft 278 kts 326°
2026-05-04 15:13 44.66549 26.12962 5101 ft 290 kts 328°
2026-05-04 15:14 44.68220 26.11358 6115 ft 291 kts 329°
2026-05-04 15:14 44.69876 26.09777 7053 ft 292 kts 329°
2026-05-04 15:14 44.71570 26.08156 7895 ft 296 kts 329°
2026-05-04 15:14 44.73295 26.06506 8761 ft 301 kts 329°
2026-05-04 15:15 44.75022 26.04830 9583 ft 306 kts 329°
2026-05-04 15:15 44.76775 26.03088 10395 ft 310 kts 329°
2026-05-04 15:15 44.78570 26.01297 10913 ft 323 kts 329°
2026-05-04 15:16 44.82291 25.97665 12424 ft 329 kts 330°
2026-05-04 15:16 44.84176 25.95848 13070 ft 335 kts 330°
2026-05-04 15:16 44.88075 25.92056 14410 ft 344 kts 330°
2026-05-04 15:17 44.90048 25.90114 15068 ft 347 kts 330°
2026-05-04 15:17 44.94002 25.86170 16382 ft 352 kts 329°
2026-05-04 15:17 44.96005 25.84150 16989 ft 356 kts 329°
2026-05-04 15:18 44.98032 25.82142 17516 ft 361 kts 330°
2026-05-04 15:18 45.00115 25.80105 18113 ft 365 kts 330°
2026-05-04 15:18 45.02220 25.78054 18665 ft 369 kts 329°
2026-05-04 15:19 45.06468 25.73888 19780 ft 373 kts 328°
2026-05-04 15:19 45.08577 25.71775 20330 ft 376 kts 327°
2026-05-04 15:19 45.12734 25.67168 21453 ft 381 kts 323°
2026-05-04 15:20 45.14790 25.64770 22041 ft 383 kts 322°
2026-05-04 15:20 45.16827 25.62382 22622 ft 385 kts 322°
2026-05-04 15:20 45.18896 25.59975 23204 ft 386 kts 322°
2026-05-04 15:20 45.20990 25.57566 23738 ft 388 kts 321°
2026-05-04 15:21 45.23104 25.55157 24173 ft 390 kts 321°
2026-05-04 15:21 45.25205 25.52774 24585 ft 392 kts 321°
2026-05-04 15:21 45.29501 25.47894 25395 ft 397 kts 321°
2026-05-04 15:22 45.31664 25.45428 25777 ft 399 kts 320°
2026-05-04 15:22 45.33812 25.42972 26150 ft 402 kts 320°
2026-05-04 15:22 45.38195 25.37933 26864 ft 407 kts 320°
2026-05-04 15:23 45.40417 25.35374 27211 ft 410 kts 319°
2026-05-04 15:23 45.42651 25.32807 27555 ft 413 kts 319°
2026-05-04 15:23 45.44869 25.30261 27893 ft 415 kts 319°
2026-05-04 15:23 45.47127 25.27664 28236 ft 418 kts 319°
2026-05-04 15:24 45.51650 25.22450 28905 ft 422 kts 319°
2026-05-04 15:24 45.56247 25.17139 29551 ft 427 kts 318°
2026-05-04 15:25 45.58569 25.14450 29864 ft 429 kts 318°
2026-05-04 15:25 45.60869 25.11780 30158 ft 432 kts 319°
2026-05-04 15:25 45.63210 25.09064 30417 ft 434 kts 318°
2026-05-04 15:26 45.67895 25.03613 30912 ft 437 kts 319°
2026-05-04 15:26 45.70266 25.00849 31141 ft 439 kts 319°
2026-05-04 15:26 45.75024 24.95300 31665 ft 440 kts 320°
2026-05-04 15:27 45.77373 24.92556 31997 ft 439 kts 320°
2026-05-04 15:27 45.82099 24.87025 32632 ft 438 kts 320°
2026-05-04 15:28 45.86798 24.81527 33250 ft 437 kts 321°
2026-05-04 15:28 45.89155 24.78768 33565 ft 436 kts 321°
2026-05-04 15:28 45.93833 24.73267 34173 ft 435 kts 321°
2026-05-04 15:29 45.96181 24.70491 34435 ft 435 kts 321°
2026-05-04 15:30 46.05501 24.59476 35401 ft 434 kts 322°
2026-05-04 15:30 46.12455 24.51222 36075 ft 432 kts 322°
2026-05-04 15:31 46.17101 24.45695 36511 ft 432 kts 322°
2026-05-04 15:31 46.19386 24.42974 36698 ft 431 kts 322°
2026-05-04 15:32 46.26305 24.34691 37260 ft 431 kts 322°
2026-05-04 15:32 46.30922 24.29153 37612 ft 431 kts 322°
2026-05-04 15:33 46.35542 24.23616 37968 ft 430 kts 322°
2026-05-04 15:34 46.42436 24.15329 38050 ft 430 kts 321°
2026-05-04 15:34 46.49316 24.07009 38046 ft 430 kts 321°
2026-05-04 15:35 46.56183 23.98668 38042 ft 430 kts 321°
2026-05-04 15:36 46.63067 23.90285 38062 ft 431 kts 321°
2026-05-04 15:36 46.67668 23.84673 38068 ft 431 kts 321°
2026-05-04 15:37 46.72238 23.79095 38073 ft 431 kts 321°
2026-05-04 15:37 46.76834 23.73453 38074 ft 431 kts 321°
2026-05-04 15:38 46.81388 23.67858 38075 ft 430 kts 321°
2026-05-04 15:38 46.85976 23.62208 38075 ft 431 kts 321°
2026-05-04 15:39 46.90530 23.56587 38078 ft 431 kts 321°
2026-05-04 15:40 46.97411 23.48065 38075 ft 431 kts 321°
2026-05-04 15:40 47.01966 23.42416 38080 ft 431 kts 321°
2026-05-04 15:41 47.06527 23.36749 38080 ft 431 kts 321°
2026-05-04 15:41 47.11109 23.31027 38080 ft 432 kts 320°
2026-05-04 15:42 47.15656 23.25340 38084 ft 432 kts 320°
2026-05-04 15:42 47.20243 23.19592 38090 ft 431 kts 320°
2026-05-04 15:43 47.24778 23.13898 38090 ft 431 kts 320°
2026-05-04 15:43 47.29340 23.08157 38092 ft 431 kts 320°
2026-05-04 15:44 47.33901 23.02398 38088 ft 431 kts 320°
2026-05-04 15:44 47.38425 22.96675 38086 ft 431 kts 320°
2026-05-04 15:45 47.42953 22.90924 38083 ft 430 kts 320°
2026-05-04 15:45 47.47500 22.85147 38077 ft 430 kts 320°
2026-05-04 15:46 47.52047 22.79356 38077 ft 430 kts 320°
2026-05-04 15:46 47.56551 22.73605 38080 ft 430 kts 320°
2026-05-04 15:47 47.61090 22.67797 38078 ft 430 kts 320°
2026-05-04 15:47 47.65588 22.62024 38081 ft 429 kts 320°
2026-05-04 15:48 47.70114 22.56209 38083 ft 429 kts 320°
2026-05-04 15:48 47.76846 22.47513 38083 ft 429 kts 320°
2026-05-04 15:49 47.81199 22.41440 38086 ft 429 kts 315°
2026-05-04 15:49 47.85314 22.35069 38083 ft 429 kts 315°
2026-05-04 15:50 47.89452 22.28646 38085 ft 428 kts 315°
2026-05-04 15:50 47.93563 22.22255 38080 ft 428 kts 315°
2026-05-04 15:51 47.97695 22.15817 38080 ft 428 kts 315°
2026-05-04 15:51 48.01792 22.09426 38077 ft 428 kts 315°
2026-05-04 15:52 48.05913 22.02975 38074 ft 428 kts 315°
2026-05-04 15:52 48.09989 21.96566 38076 ft 427 kts 314°
2026-05-04 15:53 48.14094 21.90094 38071 ft 427 kts 314°
2026-05-04 15:53 48.18160 21.83675 38072 ft 427 kts 314°
2026-05-04 15:54 48.22254 21.77186 38076 ft 427 kts 314°
2026-05-04 15:54 48.26315 21.70748 38075 ft 426 kts 314°
2026-05-04 15:55 48.30394 21.64273 38071 ft 426 kts 314°
2026-05-04 15:55 48.34449 21.57807 38073 ft 426 kts 314°
2026-05-04 15:56 48.38516 21.51304 38071 ft 426 kts 314°
2026-05-04 15:56 48.42553 21.44834 38072 ft 426 kts 314°
2026-05-04 15:57 48.46612 21.38309 38074 ft 425 kts 314°
2026-05-04 15:57 48.50640 21.31827 38070 ft 425 kts 314°
2026-05-04 15:58 48.54779 21.25424 38069 ft 425 kts 317°
2026-05-04 15:58 48.59132 21.19461 38069 ft 424 kts 319°
2026-05-04 15:59 48.63550 21.13550 38071 ft 424 kts 319°
2026-05-04 15:59 48.67904 21.07582 38070 ft 424 kts 318°
2026-05-04 16:00 48.72239 21.01513 38071 ft 423 kts 317°
2026-05-04 16:00 48.76531 20.95486 38073 ft 423 kts 317°
2026-05-04 16:01 48.80848 20.89425 38062 ft 422 kts 317°
2026-05-04 16:01 48.85149 20.83389 38069 ft 421 kts 317°
2026-05-04 16:02 48.89451 20.77335 38071 ft 421 kts 317°
2026-05-04 16:03 48.95859 20.68271 38069 ft 420 kts 317°
2026-05-04 16:03 49.00122 20.62230 38065 ft 420 kts 317°
2026-05-04 16:04 49.04407 20.56155 38066 ft 420 kts 317°
2026-05-04 16:04 49.10792 20.47069 38068 ft 420 kts 316°
2026-05-04 16:05 49.15058 20.40961 38063 ft 420 kts 316°
2026-05-04 16:06 49.21437 20.31817 38054 ft 420 kts 316°
2026-05-04 16:07 49.29953 20.19573 38039 ft 421 kts 317°
2026-05-04 16:07 49.37285 20.12187 38028 ft 422 kts 329°
2026-05-04 16:08 49.39789 20.09928 38024 ft 423 kts 329°
2026-05-04 16:09 49.52477 19.98393 38034 ft 423 kts 328°
2026-05-04 16:10 49.62564 19.89179 38033 ft 423 kts 328°
2026-05-04 16:11 49.72655 19.79903 38027 ft 422 kts 328°
2026-05-04 16:12 49.86944 19.66720 38002 ft 422 kts 328°
2026-05-04 16:13 49.97055 19.57325 37996 ft 423 kts 328°
2026-05-04 16:14 50.07106 19.47943 37993 ft 423 kts 328°
2026-05-04 16:16 50.19695 19.36107 37993 ft 423 kts 328°
2026-05-04 16:17 50.32271 19.24242 37992 ft 423 kts 327°
2026-05-04 16:18 50.42310 19.14701 37984 ft 423 kts 327°
2026-05-04 16:19 50.54857 19.02720 37985 ft 422 kts 327°
2026-05-04 16:20 50.67365 18.90675 37984 ft 421 kts 327°
2026-05-04 16:22 50.79805 18.78652 37972 ft 421 kts 327°
2026-05-04 16:23 50.94735 18.64090 37964 ft 420 kts 327°
2026-05-04 16:25 51.09648 18.49464 37954 ft 420 kts 326°
2026-05-04 16:26 51.26979 18.32301 37952 ft 420 kts 326°
2026-05-04 16:28 51.39358 18.19970 37960 ft 419 kts 326°
2026-05-04 16:29 51.56658 18.02567 37964 ft 419 kts 326°
2026-05-04 16:31 51.68974 17.90105 37960 ft 418 kts 325°
2026-05-04 16:32 51.83681 17.75089 37952 ft 418 kts 325°
2026-05-04 16:33 51.93491 17.65001 37947 ft 418 kts 325°
2026-05-04 16:34 52.00872 17.57382 37953 ft 419 kts 325°
2026-05-04 16:35 52.15602 17.42084 37951 ft 419 kts 324°
2026-05-04 16:36 52.22956 17.34411 37944 ft 419 kts 324°
2026-05-04 16:37 52.30302 17.26715 37951 ft 420 kts 324°
2026-05-04 16:38 52.40107 17.16380 37946 ft 420 kts 324°
2026-05-04 16:39 52.52363 17.03388 37953 ft 420 kts 324°
2026-05-04 16:40 52.62190 16.92919 37947 ft 420 kts 324°
2026-05-04 16:41 52.74422 16.79797 37948 ft 420 kts 324°
2026-05-04 16:43 52.86656 16.66573 37942 ft 421 kts 324°
2026-05-04 16:43 52.93988 16.58628 37949 ft 421 kts 324°
2026-05-04 16:45 53.08655 16.42598 37949 ft 421 kts 324°
2026-05-04 16:46 53.20856 16.29153 37950 ft 421 kts 323°
2026-05-04 16:47 53.30617 16.18350 37944 ft 421 kts 323°
2026-05-04 16:48 53.40364 16.07494 37950 ft 422 kts 325°
2026-05-04 16:49 53.50892 15.98583 37948 ft 424 kts 330°
2026-05-04 16:50 53.61472 15.89820 37964 ft 424 kts 330°
2026-05-04 16:51 53.69395 15.83209 37963 ft 424 kts 330°
2026-05-04 16:52 53.79960 15.74383 37971 ft 424 kts 330°
2026-05-04 16:53 53.87903 15.67696 37974 ft 424 kts 330°
2026-05-04 16:54 53.98469 15.58767 37979 ft 424 kts 330°
2026-05-04 16:55 54.14284 15.45296 37972 ft 425 kts 329°
2026-05-04 16:56 54.27508 15.33954 37971 ft 425 kts 329°
2026-05-04 16:57 54.35406 15.27131 37974 ft 424 kts 329°
2026-05-04 16:58 54.43476 15.20957 37393 ft 425 kts 334°
2026-05-04 16:58 54.46246 15.19139 37154 ft 425 kts 335°
2026-05-04 16:59 54.51770 15.15465 36626 ft 424 kts 334°
2026-05-04 17:00 54.62663 15.07932 34694 ft 418 kts 333°
2026-05-04 17:00 54.70639 15.02483 33223 ft 408 kts 333°
2026-05-04 17:01 54.75901 14.98889 32147 ft 403 kts 333°
2026-05-04 17:01 54.81040 14.95333 31206 ft 397 kts 333°
2026-05-04 17:02 54.86138 14.91674 30145 ft 394 kts 332°
2026-05-04 17:02 54.91069 14.87827 29526 ft 380 kts 331°
2026-05-04 17:03 54.93438 14.86000 29268 ft 372 kts 331°
2026-05-04 17:03 54.95780 14.84188 28972 ft 365 kts 331°
2026-05-04 17:03 54.99913 14.79268 27491 ft 360 kts 303°
2026-05-04 17:04 55.02378 14.71807 26390 ft 356 kts 295°
2026-05-04 17:04 55.04754 14.64160 25064 ft 364 kts 295°
2026-05-04 17:05 55.07197 14.56286 23744 ft 371 kts 295°
2026-05-04 17:05 55.09634 14.48443 22676 ft 367 kts 294°
2026-05-04 17:06 55.12036 14.40631 21693 ft 361 kts 294°
2026-05-04 17:06 55.13197 14.36826 21243 ft 357 kts 294°
2026-05-04 17:07 55.15516 14.29228 20414 ft 350 kts 294°
2026-05-04 17:07 55.16281 14.26755 20133 ft 347 kts 294°
2026-05-04 17:07 55.17804 14.21785 19513 ft 345 kts 294°
2026-05-04 17:07 55.18914 14.18119 19050 ft 343 kts 293°
2026-05-04 17:08 55.20028 14.14423 18618 ft 342 kts 293°
2026-05-04 17:08 55.22252 14.07143 17690 ft 338 kts 294°
2026-05-04 17:08 55.23367 14.03524 17222 ft 336 kts 294°
2026-05-04 17:09 55.24470 13.99906 16740 ft 335 kts 293°
2026-05-04 17:09 55.25557 13.96301 16273 ft 333 kts 293°
2026-05-04 17:09 55.26617 13.92756 15878 ft 330 kts 293°
2026-05-04 17:10 55.28726 13.85676 15150 ft 323 kts 293°
2026-05-04 17:10 55.31849 13.75427 14149 ft 315 kts 301°
2026-05-04 17:11 55.33330 13.72614 13911 ft 313 kts 311°
2026-05-04 17:11 55.34867 13.69987 13579 ft 310 kts 310°
2026-05-04 17:11 55.37871 13.64627 12860 ft 304 kts 309°
2026-05-04 17:12 55.39343 13.61970 12496 ft 302 kts 309°
2026-05-04 17:12 55.42247 13.56773 11799 ft 297 kts 310°
2026-05-04 17:13 55.46592 13.49087 10675 ft 293 kts 310°
2026-05-04 17:14 55.50812 13.41520 9545 ft 290 kts 310°
2026-05-04 17:14 55.52244 13.38985 9050 ft 291 kts 310°
2026-05-04 17:14 55.55084 13.33936 8158 ft 289 kts 310°
2026-05-04 17:15 55.56494 13.31411 7740 ft 287 kts 310°
2026-05-04 17:15 55.59249 13.26433 6942 ft 282 kts 309°
2026-05-04 17:16 55.61965 13.21513 6198 ft 275 kts 310°
2026-05-04 17:16 55.65896 13.14969 5713 ft 242 kts 315°
2026-05-04 17:17 55.67168 13.13099 5387 ft 239 kts 316°
2026-05-04 17:17 55.70897 13.07288 4247 ft 233 kts 304°
2026-05-04 17:18 55.71708 13.04926 4078 ft 221 kts 295°
2026-05-04 17:18 55.73102 13.00371 3994 ft 201 kts 295°
2026-05-04 17:19 55.74430 12.96099 3566 ft 197 kts 296°
2026-05-04 17:19 55.75621 12.91755 3140 ft 196 kts 279°
2026-05-04 17:20 55.75173 12.87113 2973 ft 193 kts 242°
2026-05-04 17:20 55.73390 12.83638 2943 ft 185 kts 223°
2026-05-04 17:20 55.72445 12.82168 2751 ft 177 kts 224°
2026-05-04 17:21 55.70596 12.79292 2193 ft 173 kts 223°
2026-05-04 17:21 55.68847 12.76563 1775 ft 164 kts 223°
2026-05-04 17:22 55.67997 12.75245 1533 ft 161 kts 223°
2026-05-04 17:22 55.67448 12.74387 1353 ft 157 kts 223°
2026-05-04 17:23 55.65267 12.71004 754 ft 132 kts 224°
2026-05-04 17:23 55.64578 12.69927 588 ft 133 kts 224°
2026-05-04 17:23 55.63183 12.67759 260 ft 133 kts 225°
2026-05-04 17:24 55.62486 12.66682 64 ft 132 kts 225°
2026-05-04 17:24 55.61271 12.64702 26 ft 37 kts 247°
2026-05-04 17:25 55.61210 12.64376 24 ft 21 kts 251°
2026-05-04 17:25 55.61284 12.64114 24 ft 15 kts 31°
2026-05-04 17:26 55.61445 12.64297 25 ft 12 kts 32°
2026-05-04 17:26 55.61629 12.64509 26 ft 9 kts 33°
2026-05-04 17:27 55.61739 12.64562 24 ft 12 kts 349°
2026-05-04 17:27 55.61957 12.64488 24 ft 14 kts 349°
2026-05-04 17:28 55.62099 12.64443 25 ft 5 kts 350°
2026-05-04 17:29 55.62127 12.64434 23 ft 8 kts 350°
2026-05-04 17:29 55.62346 12.64108 21 ft 19 kts 304°
2026-05-04 17:30 55.62652 12.63810 24 ft 17 kts 33°
2026-05-04 17:31 55.62795 12.63976 24 ft 10 kts 33°
2026-05-04 17:31 55.62825 12.64188 25 ft 3 kts 121°
2026-05-04 17:32 55.62813 12.64220 26 ft 0 kts 122°
2026-05-04 17:33 55.62813 12.64221 26 ft 0 kts 122°